Printer-friendly version

IAU Minor Planet Center

Minor Planet Center

MPEC 2006-L35 : COMET C/2006 L1 (GARRADD)

The following Minor Planet Electronic Circular may be linked-to from your own Web pages, but must not otherwise be redistributed electronically.


Read MPEC 2006-L34 Read MPEC 2006-L36


M.P.E.C. 2006-L35                                Issued 2006 June 7, 15:11 UT

     The Minor Planet Electronic Circulars contain information on unusual
         minor planets and routine data on comets.  They are published
   on behalf of Commission 20 of the International Astronomical Union by the
          Minor Planet Center, Smithsonian Astrophysical Observatory,
                          Cambridge, MA 02138, U.S.A.

                  Supported in part by the Brinson Foundation
                  Supported in part by the TABASGO Foundation
             Prepared using the Tamkin Foundation Computer Network

                              MPC@CFA.HARVARD.EDU
          URL http://cfa-www.harvard.edu/iau/mpc.html  ISSN 1523-6714

                           COMET C/2006 L1 (GARRADD)

Observations:
    CK06L010  C2006 06 04.37559 10 02 22.77 -34 18 56.0          17.9 T EL035E12
    CK06L010  C2006 06 04.39608 10 02 21.48 -34 18 13.0          18.2 T EL035E12
    CK06L010  C2006 06 04.40631 10 02 20.79 -34 17 52.6          17.8 T EL035E12
    CK06L010  C2006 06 04.45682 10 02 17.51 -34 16 05.9          18.1 T EL035E12
    CK06L010  C2006 06 04.45745 10 02 17.53 -34 16 04.0          18.0 T EL035E12
    CK06L010  C2006 06 04.45810 10 02 17.39 -34 16 03.0          18.1 T EL035E12
    CK06L010  C2006 06 04.45874 10 02 17.41 -34 16 01.9          18.2 T EL035E12
    CK06L010  C2006 06 04.46468 10 02 17.00 -34 15 48.8          18.0 T EL035E12
    CK06L010  C2006 06 04.47659 10 02 16.26 -34 15 24.4          18.0 T EL035E12
    CK06L010  C2006 06 04.48852 10 02 15.62 -34 14 58.3          17.6 T EL035E12
    CK06L010  C2006 06 04.50045 10 02 14.74 -34 14 34.1          18.2 T EL035E12
    CK06L010  C2006 06 06.39812 10 00 21.22 -33 09 19.0          17.6 T EL035E12
    CK06L010  C2006 06 06.40560 10 00 20.82 -33 09 03.3          17.7 T EL035E12
    CK06L010  C2006 06 06.41612 10 00 20.17 -33 08 41.8          17.7 T EL035E12
    CK06L010  C2006 06 06.42605 10 00 19.57 -33 08 22.0                 EL035E12
    CK06L010  C2006 06 06.43593 10 00 19.10 -33 08 02.4          17.8 T EL035E12
    CK06L010  C2006 06 06.44580 10 00 18.44 -33 07 41.7          18.1 T EL035E12
    CK06L010  C2006 06 06.91255 09 59 52.43 -32 51 56.3          17.9 N EL035I77
    CK06L010  C2006 06 06.91782 09 59 52.15 -32 51 45.5          18.1 N EL035I77
    CK06L010  C2006 06 06.91835 09 59 52.12 -32 51 44.5          18.1 N EL035I77
    CK06L010  C2006 06 06.92414 09 59 51.83 -32 51 32.6          18.1 N EL035I77
    CK06L010  C2006 06 07.35910 09 59 28.11 -32 36 54.9          17.6 T EL035E12
    CK06L010  C2006 06 07.37546 09 59 27.33 -32 36 22.8          17.2 N EL035423
    CK06L010  C2006 06 07.39428 09 59 26.18 -32 35 43.4                 EL035E12
    CK06L010  C2006 06 07.39492 09 59 26.10 -32 35 42.3                 EL035E12
    CK06L010  C2006 06 07.39557 09 59 26.11 -32 35 41.4                 EL035E12
    CK06L010  C2006 06 07.41395 09 59 25.11 -32 35 05.2          17.5 N EL035423

Observer details:
423 North Ryde.  Observer S. G. McAndrew.  0.20-m f/4 hyperbolic astrograph
    + CCD.
E12 Siding Spring Survey.  Observers G. J. Garradd, R. H. McNaught.
    0.5-m Uppsala Schmidt + CCD.
I77 CEAMIG-REA Observatory, Belo Horizonte.  Observers C. Jacques, E. Pimentel.
    Measurer C. Jacques.  0.30-m f/3.0 Schmidt-Cassegrain + CCD.

Orbital elements:
    C/2006 L1 (Garradd)
T 2006 Oct. 17.242 TT                                   MPC
q   1.49940              (2000.0)            P               Q
                   Peri.  336.615       -0.497671       +0.639253
                   Node   101.716       +0.859870       +0.274948
e   1.0            Incl.  143.222       +0.113788       +0.718164
From 27 observations 2006 June 4-7.

Ephemeris:
    C/2006 L1 (Garradd)
Date    TT    R. A. (2000) Decl.     Delta      r     Elong.  Phase   m1    m2
2006 06 04    10 02.78   -34 32.1    2.051    2.351    94.0    25.5  17.3
2006 06 14    09 54.52   -29 05.4    2.148    2.256    82.7    26.5  17.2
2006 06 24    09 50.15   -24 27.9    2.255    2.163    71.7    26.5  17.1
2006 07 04    09 48.45   -20 36.8    2.360    2.073    61.3    25.5  17.0
2006 07 14    09 48.54   -17 25.5    2.453    1.986    51.4    23.6  16.9
2006 07 24    09 49.83   -14 46.6    2.529    1.902    42.2    21.0  16.8
2006 08 03    09 51.89   -12 33.2    2.580    1.824    33.6    18.0  16.7

Brian G. Marsden             (C) Copyright 2006 MPC           M.P.E.C. 2006-L35

Read MPEC 2006-L34 Read MPEC 2006-L36


Our Web policy. Index to the CBAT/MPC/ICQ pages.


Valid HTML 4.01!